Change the Weather History Date:

Friday, January 6, 2012

  Actual Average Record
Temperature  
Mean Temperature 30 °F -  
Max Temperature 37 °F 27 °F 45 °F (2002)
Min Temperature 24 °F 20 °F -6 °F (1966)
Degree Days  
Heating Degree Days 34    
Moisture  
Dew Point 25 °F    
Average Humidity 87    
Maximum Humidity 100    
Minimum Humidity 74    
Precipitation  
Precipitation 0.09 in - - ()
Sea Level Pressure  
Sea Level Pressure 29.72 in    
Wind  
Wind Speed 4 mph (ESE)    
Max Wind Speed 32 mph    
Max Gust Speed 41 mph    
Visibility 6 miles    
Events Snow    
Averages and records for this station are not official NWS values.
T = Trace of Precipitation, MM = Missing Value Source: NWS Daily Summary

Daily Weather History Graph

Daily Weather History Graph

Search for Another Location

Airport or City:

Trip Planner

Search our weather history database for the weather conditions in past years. The results will help you decide how hot, cold, wet, or windy it might be!

Date:

Astronomy

Jan. 06, 2012 Rise Set
Actual Time 8:55 AM AKST 3:18 PM AKST
Civil Twilight 8:01 AM AKST 4:12 PM AKST
Nautical Twilight 7:07 AM AKST 5:07 PM AKST
Astronomical Twilight 6:17 AM AKST 5:57 PM AKST
Moon 1:07 PM AKST (1/6) 6:50 AM AKST (1/6)
Length of Visible Light 8h 11m
Length of Day
6h 23m
Waxing Gibbous, 94% of the Moon is Illuminated
Jan 6
Waxing Gibbous
Jan 8
Full
Jan 16
Last Quarter
Jan 22
New
Jan 30
First Quarter

Hourly Weather History & Observations

Time (AKST) Temp. Windchill Dew Point Humidity Pressure Visibility Wind Dir Wind Speed Gust Speed Precip Events Conditions
12:53 AM 27.0 °F 20.5 °F 23.0 °F 85% 29.96 in 10.0 mi NNE 5.8 mph - N/A   Clear
1:53 AM 27.0 °F 20.5 °F 23.0 °F 85% 29.95 in 10.0 mi NE 5.8 mph - N/A   Clear
3:53 AM 27.0 °F 21.6 °F 23.0 °F 85% 29.93 in 10.0 mi NE 4.6 mph - N/A   Clear
4:53 AM 27.0 °F - 21.9 °F 81% 29.92 in 10.0 mi Calm Calm - N/A   Clear
5:53 AM 27.0 °F 23.0 °F 21.0 °F 78% 29.90 in 10.0 mi NNE 3.5 mph - N/A   Clear
6:53 AM 26.1 °F 20.5 °F 21.0 °F 81% 29.87 in 10.0 mi ENE 4.6 mph - N/A   Clear
7:53 AM 26.1 °F 21.9 °F 19.9 °F 78% 29.85 in 10.0 mi East 3.5 mph - N/A   Clear
8:53 AM 24.1 °F 19.7 °F 19.9 °F 84% 29.84 in 10.0 mi NE 3.5 mph - N/A   Mostly Cloudy
9:53 AM 25.0 °F - 19.0 °F 78% 29.83 in 10.0 mi Calm Calm - N/A   Overcast
10:53 AM 26.1 °F - 19.9 °F 78% 29.80 in 10.0 mi Calm Calm - N/A   Overcast
11:53 AM 27.0 °F - 19.9 °F 75% 29.77 in 10.0 mi Calm Calm - N/A   Overcast
12:53 PM 28.0 °F - 21.0 °F 75% 29.74 in 10.0 mi Calm Calm - N/A   Overcast
1:53 PM 28.0 °F - 21.9 °F 78% 29.71 in 10.0 mi Calm Calm - N/A   Overcast
2:39 PM 28.4 °F - 21.2 °F 74% 29.70 in 9.0 mi Calm Calm - N/A   Overcast
2:53 PM 28.0 °F - 21.9 °F 78% 29.69 in 10.0 mi Calm Calm - N/A   Overcast
3:53 PM 28.0 °F - 23.0 °F 81% 29.69 in 4.0 mi Calm Calm - 0.00 in Snow Light Snow
4:46 PM 26.6 °F - 24.8 °F 93% 29.68 in 2.0 mi Calm Calm - 0.00 in Snow Light Snow
4:53 PM 27.0 °F - 25.0 °F 92% 29.68 in 1.8 mi Calm Calm - 0.00 in Snow Light Snow
5:09 PM 26.6 °F - 24.8 °F 93% 29.68 in 1.2 mi Calm Calm - 0.00 in Snow Light Snow
5:40 PM 26.6 °F - 24.8 °F 93% 29.67 in 1.5 mi Calm Calm - 0.02 in Snow Light Snow
5:53 PM 27.0 °F - 26.1 °F 96% 29.67 in 1.8 mi Calm Calm - 0.02 in Snow Light Snow
6:36 PM 26.6 °F - 26.6 °F 100% 29.65 in 1.5 mi Calm Calm - 0.01 in Snow Light Snow
6:53 PM 27.0 °F - 26.1 °F 96% 29.65 in 1.8 mi Calm Calm - 0.02 in Snow Light Snow
7:04 PM 26.6 °F - 26.6 °F 100% 29.64 in 2.0 mi Calm Calm - 0.00 in Snow Light Snow
7:53 PM 28.0 °F - 26.1 °F 92% 29.65 in 3.0 mi Calm Calm - 0.01 in Snow Light Snow
8:05 PM 28.4 °F - 26.6 °F 93% 29.64 in 2.5 mi Calm Calm - 0.00 in Snow Light Snow
8:31 PM 26.6 °F - 26.6 °F 100% 29.64 in 1.8 mi Calm Calm - 0.00 in Snow Light Snow
8:48 PM 28.4 °F - 26.6 °F 93% 29.64 in 2.0 mi Calm Calm - 0.01 in Snow Light Snow
8:53 PM 28.0 °F - 26.1 °F 92% 29.64 in 1.8 mi Calm Calm - 0.01 in Snow Light Snow
9:02 PM 28.4 °F - 26.6 °F 93% 29.63 in 2.0 mi Calm Calm - 0.00 in Snow Light Snow
9:33 PM 28.4 °F 20.4 °F 26.6 °F 93% 29.63 in 3.0 mi WNW 8.1 mph - 0.01 in Snow Light Snow
9:53 PM 32.0 °F - 30.0 °F 92% 29.63 in 5.0 mi Calm Calm - 0.01 in Snow Light Snow
10:05 PM 35.6 °F 24.5 °F 32.0 °F 87% 29.61 in 7.0 mi SSW 20.7 mph 29.9 mph 0.01 in   Overcast
10:17 PM 35.6 °F 24.5 °F 33.8 °F 93% 29.62 in 8.0 mi SSW 20.7 mph 31.1 mph 0.01 in Snow Light Snow
10:53 PM 36.0 °F 25.3 °F 33.1 °F 89% 29.61 in 9.0 mi SSW 19.6 mph 28.8 mph 0.01 in   Overcast
11:07 PM 37.4 °F 26.4 °F 33.8 °F 87% 29.61 in 10.0 mi SSW 23.0 mph 34.5 mph 0.01 in   Overcast
11:17 PM 37.4 °F 26.4 °F 33.8 °F 87% 29.61 in 10.0 mi SSW 23.0 mph 33.4 mph 0.01 in   Overcast
11:53 PM 37.9 °F 25.3 °F 34.0 °F 86% 29.61 in 8.0 mi SSW 32.2 mph 41.4 mph 0.01 in Snow Light Snow